GW6421 Weather Reports


time (UTC)temp
F
wind
direction
speed
knots
gust
knots
rain 1hr
in
rain 24hr
in
rain mn
in
humidity
%
barometer
mb
20260507064531 62 106 0.9 5.2 0.00 0.10 0.07 87 1015.1
20260507064011 62 138 0.9 5.2 0.00 0.10 0.07 88 1015.1
20260507063508 62 245 0.0 3.5 0.00 0.10 0.07 90 1015.0
20260507063024 61 191 0.9 3.5 0.00 0.10 0.07 89 1014.9
20260507062516 61 134 0.0 4.3 0.00 0.10 0.07 91 1014.9
20260507062010 61 136 0.0 4.3 0.00 0.10 0.07 91 1014.9
20260507061524 61 94 0.9 2.6 0.00 0.10 0.07 91 1014.9
20260507061010 60 88 0.9 1.7 0.00 0.10 0.07 92 1014.9
20260507060508 60 20 0.9 2.6 0.00 0.10 0.07 92 1014.9
20260507060026 59 132 0.9 2.6 0.00 0.10 0.07 94 1014.7
20260507055508 59 115 0.9 3.5 0.00 0.10 0.07 94 1014.6
20260507055018 58 75 1.7 3.5 0.00 0.10 0.07 94 1014.6
20260507054516 58 77 1.7 2.6 0.00 0.10 0.07 94 1014.6
20260507054006 57 86 0.9 2.6 0.00 0.10 0.07 94 1014.6
20260507053506 57 76 0.9 2.6 0.00 0.10 0.07 94 1014.6
20260507053023 57 68 0.9 2.6 0.00 0.10 0.07 94 1014.7
20260507052509 56 55 0.9 2.6 0.00 0.11 0.07 94 1014.6
20260507052007 56 43 0.9 1.7 0.00 0.11 0.07 94 1014.6
20260507051524 56 68 0.9 0.9 0.00 0.11 0.07 94 1014.6
20260507051009 56 68 0.0 1.7 0.00 0.11 0.07 94 1014.6
20260507050514 56 68 0.9 1.7 0.00 0.11 0.07 94 1014.5
20260507050037 55 63 0.9 1.7 0.00 0.11 0.07 94 1014.5
20260507045515 55 40 0.9 1.7 0.00 0.10 0.06 94 1014.4
20260507045008 55 53 0.9 1.7 0.00 0.10 0.06 94 1014.3
20260507044529 55 58 0.9 1.7 0.00 0.10 0.06 94 1014.3
20260507044011 55 60 0.9 1.7 0.00 0.10 0.06 94 1014.3
20260507043507 55 68 0.9 1.7 0.00 0.10 0.06 94 1014.2
20260507043018 55 65 0.9 1.7 0.00 0.11 0.06 94 1014.2
20260507042507 55 37 0.9 1.7 0.00 0.11 0.06 94 1014.2
20260507042007 55 46 0.9 1.7 0.00 0.11 0.06 94 1014.1
20260507041526 55 41 0.9 0.9 0.00 0.11 0.06 94 1014.1
20260507041007 55 41 0.0 1.7 0.00 0.12 0.06 94 1014.0
20260507040509 55 41 0.9 1.7 0.00 0.13 0.06 94 1014.0
20260507040026 55 30 0.0 1.7 0.00 0.14 0.06 94 1014.1
20260507035507 55 33 0.9 1.7 0.00 0.14 0.06 94 1013.9
20260507035011 56 110 0.0 1.7 0.00 0.14 0.06 94 1013.8
20260507034526 56 110 0.0 1.7 0.00 0.14 0.06 94 1013.8
20260507034011 56 119 0.0 0.9 0.00 0.14 0.06 94 1013.8
20260507033509 56 120 0.0 0.9 0.00 0.14 0.06 94 1013.8
20260507033028 56 99 0.0 1.7 0.00 0.15 0.06 94 1013.7
20260507032510 56 76 0.0 2.6 0.00 0.16 0.06 94 1013.8
20260507032012 56 75 0.9 2.6 0.00 0.17 0.06 94 1013.8
20260507031517 56 103 0.9 2.6 0.00 0.18 0.06 94 1013.7
20260507031007 57 86 0.9 2.6 0.00 0.18 0.06 94 1013.8
20260507030511 57 136 0.0 1.7 0.00 0.19 0.06 94 1013.8
20260507030028 57 96 0.9 2.6 0.00 0.19 0.06 94 1013.8
20260507025507 57 141 0.0 2.6 0.00 0.19 0.06 94 1013.8
20260507025011 57 88 0.9 1.7 0.00 0.19 0.06 94 1013.9
20260507024528 57 113 0.0 1.7 0.00 0.19 0.06 94 1013.9
20260507024009 57 134 0.0 1.7 0.00 0.19 0.06 94 1013.9
20260507023509 57 116 0.9 1.7 0.00 0.19 0.06 94 1013.9
20260507023010 57 105 0.0 2.6 0.00 0.19 0.06 94 1014.0
20260507022505 58 127 0.0 2.6 0.00 0.19 0.06 94 1014.0
20260507022006 58 117 0.0 1.7 0.00 0.19 0.06 94 1014.0
20260507021517 58 115 0.9 2.6 0.00 0.19 0.06 94 1014.0
20260507021005 58 90 0.0 3.5 0.00 0.19 0.06 94 1014.0
20260507020506 58 161 0.0 3.5 0.00 0.19 0.06 94 1014.0
20260507020020 58 129 0.0 2.6 0.00 0.19 0.06 94 1014.0
20260507015511 59 140 0.9 2.6 0.00 0.19 0.06 94 1014.1
20260507015007 59 94 0.0 1.7 0.00 0.19 0.06 94 1014.0
20260507014525 59 123 0.0 2.6 0.00 0.19 0.06 94 1014.0
20260507014009 59 107 0.0 2.6 0.00 0.19 0.06 94 1014.0
20260507013507 59 129 0.0 1.7 0.00 0.19 0.06 94 1014.0
20260507013025 59 114 0.0 2.6 0.00 0.19 0.06 94 1014.0
20260507012508 59 108 0.0 2.6 0.00 0.19 0.06 94 1014.0
20260507012010 59 103 0.0 3.5 0.00 0.19 0.06 94 1014.1
20260507011512 59 153 0.9 3.5 0.00 0.19 0.06 94 1014.0
20260507011005 59 103 0.9 2.6 0.00 0.19 0.06 94 1014.0
20260507010509 59 153 0.9 2.6 0.00 0.19 0.06 94 1014.0
20260507010017 59 110 0.0 2.6 0.00 0.19 0.06 93 1014.0
20260507005505 59 132 0.9 3.5 0.00 0.19 0.06 93 1014.1
20260507005010 59 139 0.9 3.5 0.00 0.19 0.06 93 1014.0
20260507004522 59 94 0.9 3.5 0.00 0.19 0.06 93 1014.0
20260507004008 59 77 0.9 2.6 0.00 0.19 0.06 93 1014.2
20260507003508 59 154 0.9 4.3 0.00 0.19 0.06 93 1014.2
20260507003025 59 190 0.0 4.3 0.00 0.19 0.06 93 1014.2
20260507002513 60 158 0.0 4.3 0.02 0.19 0.06 93 1014.1
20260507002014 60 127 1.7 4.3 0.03 0.19 0.06 93 1014.1
20260507001527 60 75 0.9 4.3 0.03 0.19 0.06 94 1014.0
20260507001010 60 72 0.9 3.5 0.03 0.19 0.06 93 1014.1
20260507000513 60 139 0.9 3.5 0.03 0.19 0.06 93 1014.1
20260507000015 61 219 0.9 2.6 0.03 0.19 0.06 94 1014.1
20260506235508 61 164 0.9 3.5 0.03 0.19 0.06 94 1014.1
20260506235009 61 145 0.0 3.5 0.04 0.19 0.06 94 1014.2
20260506234521 61 199 0.0 2.6 0.04 0.19 0.06 94 1014.2
20260506234008 61 236 0.0 1.7 0.04 0.19 0.06 93 1014.2
20260506233510 61 72 0.9 2.6 0.04 0.19 0.06 94 1014.2
20260506233024 61 123 0.0 2.6 0.03 0.18 0.05 94 1014.2
20260506232507 60 97 0.9 1.7 0.02 0.17 0.03 94 1014.3
20260506232007 60 120 0.0 0.9 0.01 0.16 0.03 93 1014.2
20260506231527 60 115 0.0 0.9 0.01 0.15 0.02 93 1014.2
20260506231012 60 115 0.0 0.9 0.01 0.15 0.02 93 1014.2
20260506230509 60 235 0.0 0.9 0.01 0.15 0.02 93 1014.2
20260506230029 60 249 0.0 2.6 0.02 0.15 0.02 93 1014.2
20260506225507 61 131 0.0 2.6 0.02 0.15 0.02 93 1014.1
20260506225012 61 127 0.0 2.6 0.02 0.14 0.01 93 1013.9
20260506224514 61 137 0.0 2.6 0.02 0.14 0.01 93 1014.0
20260506224007 61 131 0.9 1.7 0.03 0.14 0.01 93 1013.9
20260506223505 61 141 0.0 1.7 0.03 0.14 0.01 93 1013.9
20260506223018 61 101 0.9 1.7 0.03 0.14 0.01 93 1013.9
20260506222507 61 127 0.0 3.5 0.03 0.14 0.01 93 1013.9
20260506222014 61 91 0.9 3.5 0.03 0.14 0.01 93 1013.9
20260506221523 61 79 0.9 4.3 0.03 0.14 0.00 93 1014.0
20260506221013 61 150 0.9 5.2 0.03 0.14 0.00 93 1014.0
20260506220509 61 185 1.7 7.0 0.03 0.14 0.00 93 1014.1
20260506220035 62 199 1.7 7.0 0.03 0.13 0.00 93 1014.1
20260506215515 62 155 1.7 5.2 0.03 0.13 0.13 93 1014.1
20260506215010 62 74 2.6 5.2 0.02 0.12 0.12 92 1014.0
20260506214529 62 126 1.7 4.3 0.02 0.12 0.12 92 1014.0
20260506214010 62 86 0.9 7.0 0.01 0.11 0.11 92 1014.0
20260506213510 62 103 1.7 7.0 0.01 0.11 0.11 92 1014.2
20260506213018 62 132 1.7 7.8 0.01 0.11 0.11 92 1014.3
20260506212507 62 108 1.7 7.8 0.01 0.11 0.11 92 1014.3
20260506212007 62 157 0.9 5.2 0.00 0.11 0.11 92 1014.3
20260506211529 62 87 1.7 5.2 0.00 0.11 0.11 92 1014.3
20260506211008 62 82 0.9 4.3 0.00 0.11 0.11 92 1014.3
20260506210512 62 150 0.9 3.5 0.00 0.10 0.10 91 1014.4
20260506210028 62 150 0.9 4.3 0.00 0.10 0.10 91 1014.5
20260506205513 62 133 0.0 4.3 0.00 0.10 0.10 91 1014.4
20260506205010 62 166 0.9 4.3 0.00 0.10 0.10 91 1014.3
20260506204528 61 193 0.9 4.3 0.00 0.10 0.10 90 1014.3
20260506204011 62 122 0.9 3.5 0.00 0.10 0.10 90 1014.2
20260506203515 62 155 0.9 6.1 0.00 0.10 0.10 90 1014.2
20260506203031 62 50 2.6 6.1 0.00 0.10 0.10 90 1014.1
20260506202510 62 57 1.7 4.3 0.00 0.10 0.10 90 1014.1
20260506202012 62 110 0.9 5.2 0.00 0.10 0.10 90 1014.1
20260506201529 62 94 1.7 6.1 0.00 0.10 0.10 89 1014.1
20260506201007 62 141 0.9 6.1 0.00 0.10 0.10 89 1014.0
20260506200509 62 100 1.7 5.2 0.00 0.10 0.10 89 1014.0
20260506200023 62 125 1.7 4.3 0.00 0.10 0.10 89 1013.9
20260506195508 62 112 1.7 5.2 0.00 0.10 0.10 89 1014.0
20260506195011 62 92 1.7 5.2 0.00 0.10 0.10 89 1014.0
20260506194524 62 89 0.9 5.2 0.00 0.10 0.10 88 1014.0
20260506194009 62 122 0.9 4.3 0.00 0.10 0.10 88 1013.9
20260506193512 62 96 1.7 5.2 0.00 0.10 0.10 87 1013.8
20260506193027 62 141 1.7 5.2 0.00 0.10 0.10 87 1013.7
20260506150510 65 117 1.7 7.8 0.00 0.11 0.10 83 1013.1
20260506150008 65 68 3.5 13.0 0.00 0.11 0.10 82 1013.0
20260506145506 65 110 2.6 13.0 0.00 0.11 0.10 83 1013.1
20260506145007 65 162 4.3 11.3 0.00 0.12 0.10 82 1013.0
20260506144509 65 140 2.6 11.3 0.00 0.13 0.10 82 1013.0
20260506144009 65 82 2.6 9.6 0.00 0.15 0.10 82 1013.0
20260506143504 65 124 4.3 10.4 0.00 0.16 0.10 81 1013.0
20260506143018 66 114 4.3 10.4 0.00 0.16 0.10 81 1012.9
20260506142509 66 259 3.5 9.6 0.00 0.16 0.10 80 1012.9
20260506142014 66 154 2.6 11.3 0.00 0.16 0.10 80 1013.0
20260506141515 66 113 4.3 11.3 0.00 0.16 0.10 79 1013.0
20260506141011 66 124 2.6 8.7 0.00 0.16 0.10 79 1013.2
20260506140508 67 152 2.6 7.0 0.00 0.16 0.10 79 1013.2
20260506140026 67 179 2.6 7.0 0.00 0.16 0.10 79 1013.3
20260506135507 67 292 1.7 6.1 0.00 0.16 0.10 79 1013.4
20260506135007 67 148 0.9 8.7 0.00 0.16 0.10 79 1013.5
20260506134510 66 79 3.5 10.4 0.00 0.16 0.10 79 1013.4
20260506134004 67 124 3.5 11.3 0.00 0.16 0.10 78 1013.4
20260506133506 67 130 3.5 11.3 0.00 0.16 0.10 79 1013.4
20260506133025 66 152 2.6 8.7 0.00 0.16 0.10 80 1013.4
20260506132513 66 111 2.6 8.7 0.00 0.16 0.10 80 1013.4
20260506132008 66 103 2.6 9.6 0.00 0.16 0.10 80 1013.4
20260506131518 66 102 0.9 9.6 0.00 0.16 0.10 80 1013.5
20260506131008 67 226 1.7 7.8 0.00 0.16 0.10 79 1013.5
20260506130508 67 140 1.7 8.7 0.00 0.16 0.10 79 1013.6
20260506130019 66 81 2.6 8.7 0.00 0.16 0.10 80 1013.7
20260506125509 66 137 2.6 12.2 0.00 0.16 0.10 79 1013.7
20260506125012 66 103 2.6 12.2 0.00 0.16 0.10 80 1013.7
20260506124522 66 80 2.6 8.7 0.00 0.16 0.10 80 1013.7
20260506124008 65 102 3.5 8.7 0.00 0.16 0.10 81 1013.6
20260506123507 65 66 3.5 10.4 0.00 0.16 0.10 82 1013.6
20260506123008 64 61 2.6 10.4 0.00 0.16 0.10 82 1013.7
20260506122508 65 135 2.6 7.8 0.00 0.16 0.10 82 1013.7
20260506122011 65 189 1.7 6.1 0.00 0.16 0.10 82 1013.9
20260506121514 65 135 1.7 9.6 0.00 0.16 0.10 81 1013.9
20260506121007 65 144 1.7 9.6 0.00 0.16 0.10 80 1013.8
20260506120506 66 45 3.5 8.7 0.00 0.16 0.10 79 1013.8
20260506120021 66 191 2.6 10.4 0.00 0.16 0.10 80 1013.9
20260506115511 65 114 2.6 10.4 0.00 0.16 0.10 81 1013.8
20260506115009 65 155 3.5 13.0 0.00 0.16 0.10 81 1013.8
20260506114533 65 86 2.6 13.0 0.00 0.16 0.10 81 1013.8
20260506114010 65 103 4.3 13.0 0.00 0.16 0.10 80 1013.7
20260506113510 65 110 2.6 7.0 0.00 0.16 0.10 80 1013.8
20260506113020 65 67 1.7 11.3 0.00 0.16 0.10 80 1013.8
20260506112512 65 133 2.6 11.3 0.00 0.16 0.10 79 1013.8
20260506112010 66 54 3.5 11.3 0.00 0.16 0.10 79 1013.8
20260506111512 66 94 2.6 9.6 0.00 0.16 0.10 78 1013.9
20260506111010 67 87 2.6 7.8 0.00 0.16 0.10 77 1013.8
20260506110506 67 147 3.5 11.3 0.00 0.16 0.10 76 1013.8
20260506110020 67 127 3.5 11.3 0.00 0.16 0.10 76 1013.7
20260506105508 67 47 2.6 9.6 0.00 0.16 0.10 78 1013.8
20260506105004 66 221 3.5 9.6 0.00 0.16 0.10 76 1013.8
20260506104504 67 206 2.6 9.6 0.00 0.16 0.10 76 1013.9
20260506104003 67 164 2.6 9.6 0.00 0.16 0.10 75 1014.1
20260506103507 67 158 3.5 8.7 0.00 0.16 0.10 74 1014.1
20260506103004 67 147 3.5 9.6 0.00 0.16 0.10 74 1014.0
20260506102508 67 115 4.3 10.4 0.00 0.16 0.10 73 1014.1
20260506102004 67 98 3.5 10.4 0.00 0.16 0.10 73 1014.1
20260506101508 67 156 3.5 9.6 0.00 0.16 0.10 74 1014.2
20260506101007 66 99 4.3 9.6 0.00 0.16 0.10 74 1014.2
20260506100506 65 75 2.6 8.7 0.00 0.16 0.10 76 1014.1
20260506100021 65 157 1.7 7.8 0.00 0.16 0.10 77 1014.0
20260506095506 65 83 2.6 8.7 0.00 0.16 0.10 77 1014.1
20260506095009 65 196 1.7 8.7 0.00 0.16 0.10 77 1014.2
20260506094503 64 144 2.6 8.7 0.00 0.16 0.10 77 1014.0
20260506094003 65 69 2.6 8.7 0.00 0.16 0.10 77 1014.1
20260506093503 65 176 2.6 7.8 0.00 0.16 0.10 76 1014.0
20260506093005 65 153 1.7 8.7 0.00 0.16 0.10 76 1014.0
20260506092506 65 148 1.7 8.7 0.00 0.16 0.10 75 1014.1
20260506092003 65 199 2.6 8.7 0.00 0.16 0.10 75 1014.0
20260506091506 65 171 2.6 8.7 0.00 0.16 0.10 74 1013.9
20260506091002 65 152 2.6 9.6 0.00 0.16 0.10 74 1013.7
20260506090503 65 60 3.5 9.6 0.00 0.16 0.10 73 1013.7
20260506090011 65 107 2.6 9.6 0.00 0.16 0.10 73 1013.6
20260506085506 65 158 3.5 9.6 0.00 0.16 0.10 72 1013.7
20260506085007 65 141 3.5 7.8 0.00 0.16 0.10 71 1013.6
20260506084513 65 157 3.5 8.7 0.00 0.16 0.10 74 1013.6
20260506084009 65 70 1.7 8.7 0.00 0.16 0.10 77 1013.7
20260506083507 64 69 1.7 7.0 0.00 0.16 0.10 77 1013.8
20260506083004 64 287 1.7 5.2 0.00 0.16 0.10 77 1013.9
20260506082503 64 125 1.7 5.2 0.00 0.16 0.10 76 1014.0
20260506082003 64 158 1.7 5.2 0.00 0.16 0.10 76 1013.9
20260506072507 62 96 1.7 6.1 0.00 0.16 0.10 83 1013.6
20260506072012 62 68 2.6 6.1 0.00 0.16 0.10 84 1013.6
20260506071503 62 164 0.9 5.2 0.00 0.16 0.10 84 1013.5
20260506071003 62 108 1.7 5.2 0.00 0.16 0.10 84 1013.4
20260506070505 61 89 2.6 6.1 0.00 0.16 0.10 85 1013.3